Miscellaneous Local Product
Issued by NWS Hastings, NE

Home | Current Version | Previous Version | Graphics & Text | Print | Product List | Glossary On
Versions: 1 2 3 4 5 6 7 8 9 10 11 12 13 14 15 16 17 18 19 20 21 22 23 24 25 26 27 28 29 30 31 32 33 34 35 36 37 38 39 40 41 42 43 44 45 46 47 48 49 50
000
AXUS43 KGID 280502
MISGRI

GID CWA HOURLY WEATHER ROUNDUP
NATIONAL WEATHER SERVICE HASTINGS NE
1100 PM CST FRI FEB 27 2015

NOTE: "FAIR" INDICATES FEW OR NO CLOUDS BELOW 12,000 FEET WITH NO
SIGNIFICANT WEATHER AND/OR OBSTRUCTIONS TO VISIBILITY.

...SOUTH CENTRAL NEBRASKA...

CITY           SKY/WX    TMP DP  RH WIND       PRES   REMARKS
GRAND ISLAND   PTCLDY    12   1  61 S9        30.40F WCI   0
HASTINGS       PTCLDY    12   1  61 S7        30.38F WCI   1
KEARNEY        CLOUDY    12   3  67 S8        30.35F WCI   1
ORD            CLEAR     11  -3  53 S8        30.33F WCI  -1
YORK           PTCLDY    10   1  67 S7        30.43F WCI   0
AURORA         CLOUDY    12   1  63 S6        30.40F WCI   2
LEXINGTON      PTCLDY    12   5  73 S9        30.31S WCI   0
HOLDREGE       CLEAR     10   2  71 S7        30.34S WCI  -2
HEBRON         CLOUDY    15   2  58 S8        30.46S WCI   4

...NEBRASKA PANHANDLE...

CITY           SKY/WX    TMP DP  RH WIND       PRES   REMARKS
CHADRON        CLEAR     18   7  62 S12       30.04S WCI   5
ALLIANCE       MOCLDY    15   6  67 S21       30.03S WCI  -2
SCOTTSBLUFF    CLOUDY    15   7  70 SE14      30.01S WCI   0
SIDNEY         PTCLDY     8   3  80 S12       30.03F WCI  -7

...WESTERN AND NORTH CENTRAL NEBRASKA...

CITY           SKY/WX    TMP DP  RH WIND       PRES   REMARKS
VALENTINE      MOCLDY    14   5  67 S8        30.19S WCI   3
AINSWORTH      CLEAR     13   1  59 S14       30.21F WCI  -2
ONEILL         CLEAR     14   1  55 S12       30.33S WCI   0
BROKEN BOW     CLEAR     12  -1  56 S12G22    30.28F WCI  -2
IMPERIAL         N/A     11   6  81 SE9       30.17F WCI  -2
NORTH PLATTE   CLOUDY    17   5  59 S12       30.23S WCI   4
MCCOOK         CLOUDY    18   6  59 S9        30.27F WCI   7

...EASTERN NEBRASKA...

CITY           SKY/WX    TMP DP  RH WIND       PRES   REMARKS
NORFOLK        CLEAR     10   2  69 S12       30.42S WCI  -5
SO SIOUX CITY  CLEAR      4  -2  76 SE8       30.50F WCI  -9
TEKAMAH        CLEAR      9   2  73 SE7       30.52S WCI  -2
COLUMBUS       CLEAR      9  -6  52 SE6       30.45S WCI  -1
ALBION         CLEAR      7  -2  66 S5        30.39S WCI  -2
OMAHA EPPLEY   CLEAR     10   2  69 SE6       30.53F WCI   0
OFFUTT AFB     CLEAR      9   1  69 E5        30.52S WCI   0
MILLARD        CLEAR     12   3  67 CALM      30.52S
LINCOLN        CLEAR      8   0  69 S8        30.49F WCI  -4
NEBRASKA CITY  CLEAR     10  -5  50 S3        30.51F
BEATRICE       CLOUDY    15   3  61 SE6       30.48F WCI   6
FALLS CITY     PTCLDY    11   0  61 S5        30.54S WCI   3

...NORTHERN KANSAS...

CITY           SKY/WX    TMP DP  RH WIND       PRES   REMARKS
GOODLAND       FLURRIES  11   7  84 S16       30.16S WCI  -6
HILL CITY      CLOUDY    16   6  65 S10       30.34F WCI   4
NORTON         CLOUDY    16   3  57 SE8       30.31S WCI   5
PHILLIPSBURG   CLOUDY    18  10  73 SE7       30.38F WCI   8
SMITH CENTER   CLEAR      7   1  78 E9        30.41F WCI  -7
BELOIT         CLEAR     10   3  72 E3        30.46S
HAYS           CLOUDY    14   0  52 S10       30.37F WCI   1
RUSSELL        FLURRIES  14   8  77 S12       30.39S WCI   0
CONCORDIA      CLEAR      8   3  80 S7        30.46S WCI  -3
SALINA         CLEAR     12   7  80 SE6       30.49S WCI   3
TOPEKA         CLOUDY    16   3  56 E6        30.55S WCI   7



USA.gov is the U.S. government's official web portal to all federal, state and local government web resources and services.